Starlink 33635

operational
NORAD ID: 63065 Int'l Des: 2025-035 Owner: SPXS Country: US Constellation: starlink
LEOCIRCULAR

Starlink 33635について

説明を読み込み中...

リアルタイム位置

3D地球を読み込み中...

次回通過

高度履歴

Altitude vs Time

uPlot chart will show altitude changes over time

軌道要素

1 63065U 25035P 25305.62101636 .00025872 00000-0 94600-3 0 9991
2 63065 43.0003 150.3180 0000619 283.8783 76.2000 15.27593097 40147
Epoch: Nov 1, 2025 • Age: 20 hours

現在のステータス

高度 494.9 km
速度 7.62 km/s
衛星直下点 -40.88°S, 171.53°W
打ち上げ日 Feb 21, 2025
運用期間 0.6 years
タイプ internet

技術仕様

分類 Payload
質量 575.00 kg
乾燥質量 530.00 kg
総質量 575.00 kg
長さ 0.30 m
直径 4.10 m
スパン 29.00 m
形状 Box + pan
製造者 SPXS
バスタイプ Starlink V2MO
フェーズステータス In Orbit
所有者/国 SPXS/US

大規模コンステレーション

Loading constellations...